TimeEST,TemperatureF,Dew PointF,Humidity,Sea Level PressureIn,VisibilityMPH,Wind Direction,Wind SpeedMPH,Gust SpeedMPH,PrecipitationIn,Events,Conditions,WindDirDegrees,DateUTC
12:03 AM,45.7,32.7,61,30.18,10.0,SSW,4.6,-,N/A,,Clear,200,2013-12-29 05:03:00
12:23 AM,46.4,32.4,58,30.16,10.0,SSW,4.6,-,N/A,,Clear,200,2013-12-29 05:23:00
12:43 AM,46.6,32.2,57,30.16,10.0,South,4.6,-,N/A,,Clear,190,2013-12-29 05:43:00
1:03 AM,46.4,32.2,58,30.15,10.0,SSW,4.6,-,N/A,,Clear,210,2013-12-29 06:03:00
1:23 AM,46.4,32.4,58,30.15,10.0,SSW,4.6,-,N/A,,Clear,200,2013-12-29 06:23:00
1:43 AM,46.8,32.4,57,30.14,10.0,SSW,4.6,-,N/A,,Clear,200,2013-12-29 06:43:00
2:03 AM,45.9,32.9,61,30.14,10.0,SW,4.6,-,N/A,,Clear,220,2013-12-29 07:03:00
2:23 AM,46.4,33.1,60,30.14,10.0,SW,5.8,-,N/A,,Clear,220,2013-12-29 07:23:00
2:43 AM,46.0,33.1,61,30.14,10.0,SW,3.5,-,N/A,,Clear,220,2013-12-29 07:43:00
3:03 AM,47.1,32.5,57,30.13,10.0,SSW,5.8,-,N/A,,Clear,210,2013-12-29 08:03:00
3:23 AM,47.7,32.4,55,30.12,10.0,SSW,4.6,-,N/A,,Clear,210,2013-12-29 08:23:00
3:43 AM,47.1,32.9,58,30.13,10.0,SW,5.8,-,N/A,,Clear,230,2013-12-29 08:43:00
4:03 AM,46.4,33.3,60,30.12,10.0,SW,6.9,-,N/A,,Clear,230,2013-12-29 09:03:00
4:23 AM,47.3,32.9,57,30.11,10.0,SW,4.6,-,N/A,,Clear,230,2013-12-29 09:23:00
4:43 AM,49.3,32.0,51,30.10,10.0,WSW,5.8,-,N/A,,Clear,240,2013-12-29 09:43:00
5:03 AM,48.6,34.0,57,30.09,10.0,SW,4.6,-,N/A,Rain,Light Rain,230,2013-12-29 10:03:00
5:22 AM,46.9,36.7,68,30.11,10.0,SW,8.1,-,N/A,Rain,Light Rain,220,2013-12-29 10:22:00
5:58 AM,46.4,39.2,76,-9999,6.0,Calm,Calm,-,N/A,Rain,Light Rain,0,2013-12-29 10:58:00
6:52 AM,44.6,44.6,100,-9999,6.0,East,4.6,-,N/A,Rain,Light Rain,100,2013-12-29 11:52:00
7:50 AM,44.6,44.6,100,-9999,5.0,East,4.6,-,N/A,Rain,Light Rain,100,2013-12-29 12:50:00
8:54 AM,44.6,44.6,100,-9999,3.0,East,5.8,-,N/A,Rain,Rain,90,2013-12-29 13:54:00
9:50 AM,46.4,46.4,100,-9999,5.0,East,6.9,-,N/A,Rain,Rain,90,2013-12-29 14:50:00
10:45 AM,48.2,48.2,100,-9999,3.0,East,11.5,-,N/A,Rain,Rain,100,2013-12-29 15:45:00
11:50 AM,50.0,50.0,100,-9999,3.0,SE,17.3,24.2,N/A,Rain,Heavy Rain,130,2013-12-29 16:50:00
12:50 PM,51.8,51.8,100,-9999,2.0,SE,10.4,-,N/A,Rain,Rain,140,2013-12-29 17:50:00
1:50 PM,57.2,57.2,100,-9999,3.0,SW,16.1,27.6,N/A,Rain,Rain,220,2013-12-29 18:50:00
3:28 PM,50.0,50.0,100,-9999,7.0,West,8.1,-,N/A,Rain,Rain,260,2013-12-29 20:28:00
3:50 PM,50.0,50.0,100,-9999,10.0,West,9.2,-,N/A,,Mostly Cloudy,260,2013-12-29 20:50:00
4:50 PM,50.0,50.0,100,29.61,10.0,West,12.7,18.4,N/A,,Overcast,270,2013-12-29 21:50:00
5:50 PM,48.2,48.2,100,29.67,10.0,West,11.5,18.4,N/A,,Overcast,280,2013-12-29 22:50:00
6:50 PM,48.2,48.2,100,29.72,10.0,West,9.2,-,N/A,,Mostly Cloudy,270,2013-12-29 23:50:00
7:50 PM,48.2,48.2,100,29.76,10.0,West,9.2,-,N/A,,Mostly Cloudy,280,2013-12-30 00:50:00
8:50 PM,48.2,48.2,100,29.80,10.0,WNW,6.9,-,N/A,,Clear,300,2013-12-30 01:50:00
9:45 PM,47.1,47.1,100,29.82,10.0,NW,11.5,-,N/A,,Scattered Clouds,320,2013-12-30 02:45:00
10:05 PM,46.9,46.9,100,29.82,10.0,NNW,15.0,19.6,N/A,,Clear,330,2013-12-30 03:05:00
10:25 PM,46.6,46.6,100,29.83,10.0,NNW,9.2,-,N/A,,Clear,340,2013-12-30 03:25:00
10:45 PM,46.4,46.4,100,29.83,10.0,North,10.4,-,N/A,,Clear,350,2013-12-30 03:45:00
11:06 PM,45.9,45.9,100,29.84,10.0,NW,5.8,-,N/A,,Clear,320,2013-12-30 04:06:00
11:26 PM,45.0,44.8,99,29.85,10.0,NNW,4.6,-,N/A,,Clear,330,2013-12-30 04:26:00
11:46 PM,44.1,44.1,100,29.85,10.0,NW,4.6,-,N/A,,Clear,320,2013-12-30 04:46:00